Location: Unspecified
(54.1780°N, 0.0000°E)
Time: 21:49:39
(UTC+00:00)

Transit 2A - Pass Details

Date: 23 June 2019
Orbit: 594 x 964 km, 66.7° (Epoch: 20 July)

Event Time Altitude Azimuth Distance (km) Brightness Sun altitude
Rises 01:34:20 0° 234° (SW) 3,644 - -9.9°
Exits shadow 01:35:57 - 236° (SW) 3,060 8.6 -9.8°
Reaches altitude 10° 01:36:58 10° 238° (WSW) 2,700 8.3 -9.7°
Maximum altitude 01:43:16 62° 319° (NW) 1,064 6.9 -9.4°
Drops below altitude 10° 01:49:20 10° 39° (NE) 2,593 10.2 -9.0°
Sets 01:51:49 0° 44° (NE) 3,490 11.0 -8.9°
